1998-067JG

Last updated on May 24, 2016, 9:36 a.m. UTC

1 41486U 98067JG  16145.10241778  .00017863  00000-0  26377-3 0  9993
2 41486  51.6368 178.1618 0001150 127.5289 264.4188 15.55421081   934

Satellite is not in orbit.